[[{"header":{"parameterUnit":"m.s-1","parameterCategory":2,"la1":30.2991,"la2":30.254,"lo1":-89.0895,"lo2":-89.0444,"dy":0.0017,"dx":0.0017,"nx":28,"ny":28,"refTime":"2023-11-01T09:00:00:Z","depth":"0","parameterNumber":2,"parameterNumberName":"U-component_of_CURRENTS"},"data":[0,0,0,0,0,0,0,0,0,0,0,0,0,0,0,0,0,0,0,0,0,0,0,0,0,0,0,0,0,0,0,0,0,0,0,0,0,0,0,0,0,0,0,0,0,0,0,0,0,0,0,0,0,0,0,0,0,0,0.2137,0.2137,0,0.2113,0.2113,0.2113,0.2096,0.2096,0.2096,0.2096,0.2073,0.2073,0.2072,0,0,0,0,0,0,0,0,0,0,0,0,0,0.2164,0.2164,0.2137,0.2137,0.2137,0.2114,0.2113,0.2112,0.2096,0.2096,0.2096,0.2096,0.2073,0.2073,0.2072,0,0,0,0,0,0,0,0,0,0,0,0,0,0.2146,0.2164,0.2137,0.2127,0.2126,0.2114,0.2113,0.2112,0.2096,0.2096,0.2096,0.2096,0.2074,0.2073,0.2072,0.2064,0,0,0.2069,0.2068,0,0,0,0,0,0,0,0,0.2147,0.2145,0.2129,0.2128,0.2127,0.2109,0.2115,0.2097,0.2096,0.2105,0.2096,0.2096,0.2087,0.2085,0.2077,0.2063,0.2062,0.2069,0.2068,0.2068,0.2067,0,0,0,0,0,0,0,0.2148,0.2146,0.2125,0.2129,0.2127,0.2123,0.212,0.2111,0.2094,0.2104,0.2103,0.2104,0.2086,0.2078,0.2076,0.2062,0.2069,0.2068,0.2067,0.2067,0.2085,0.2086,0,0,0,0,0,0,0.2155,0.2147,0.2126,0.2125,0.214,0.2123,0.212,0.2113,0.2094,0.2092,0.2104,0.2104,0.208,0.2078,0.2076,0.2099,0.2068,0.2067,0.2066,0.2084,0.2085,0.2087,0,0,0,0,0,0,0.2156,0.2153,0.2127,0.2137,0.2134,0.2122,0.2115,0.2113,0.2113,0.2094,0.2092,0.2109,0.208,0.2077,0.2079,0.2097,0.2066,0.2065,0.2083,0.2085,0.2086,0.2124,0,0,0,0,0,0,0.2157,0.2154,0.2153,0.2138,0.2134,0.2132,0.2115,0.2112,0.2114,0.2113,0.2097,0.2095,0.2079,0.2081,0.2078,0.2095,0.2065,0.2081,0.2084,0.2086,0.2121,0.2127,0.2131,0,0,0,0,0,0.2158,0.2156,0.2153,0.215,0.2132,0.2133,0.2131,0.2122,0.2115,0.2121,0.211,0.2096,0.2092,0.2081,0.2078,0.2094,0.2081,0.2083,0.2085,0.2119,0.2126,0.2131,0,0,0,0,0,0,0.2162,0.2153,0.215,0.2144,0.2146,0.2132,0.2133,0.2129,0.2123,0.2122,0.2103,0.21,0.2113,0.2099,0.2087,0.2108,0.2087,0.2089,0.2114,0.212,0.2124,0.2137,0.2064,0,0,0,0,0,0.2164,0.2163,0.2158,0.2155,0.2156,0.2147,0.2146,0.2143,0.2136,0.2133,0.2122,0.2115,0.2119,0.2115,0.2115,0.2117,0.2123,0.2129,0.2134,0.2139,0.2148,0.2175,0.2183,0.2095,0.2095,0.2095,0,0,0.2163,0.2161,0.2158,0.2157,0.2153,0.2159,0.2146,0.215,0.2158,0.2132,0.2136,0.2134,0.2126,0.2136,0.214,0.2125,0.2168,0.2142,0.2145,0.2153,0.2178,0.2187,0.2195,0.2096,0.2096,0.2096,0,0,0.2166,0.2161,0.2164,0.217,0.2175,0.2171,0.2177,0.2172,0.2174,0.2175,0.217,0.2181,0.2166,0.2175,0.2175,0.2207,0.2198,0.2206,0.2232,0.2258,0.2266,0.2273,0.2293,0.2301,0.2202,0.2202,0.2202,0,0.2167,0.2166,0.2167,0.2176,0.2181,0.218,0.2189,0.2193,0.219,0.2196,0.2183,0.2193,0.2188,0.2215,0.2228,0.2219,0.2229,0.2208,0.2265,0.2272,0.2278,0.2297,0.2305,0.2204,0.2204,0.2204,0.2203,0,0.2173,0.2177,0.2181,0.219,0.22,0.2207,0.2217,0.2227,0.2224,0.2225,0.225,0.2247,0.2254,0.2258,0.2249,0.2296,0.2287,0.2273,0.2249,0.2289,0.2306,0.2315,0.2207,0.2206,0.2206,0.2205,0,0,0.2159,0.218,0.2181,0.2188,0.2208,0.2212,0.2238,0.2255,0.2274,0.2274,0.2298,0.2312,0.2314,0.2317,0.2317,0.2339,0.2391,0.2325,0.2325,0.2343,0.2448,0.2438,0.2446,0.2385,0.2386,0.2387,0.2443,0,0.2161,0.2176,0.2192,0.2207,0.2212,0.2232,0.2257,0.2277,0.2293,0.2318,0.233,0.2353,0.2336,0.2348,0.2369,0.2392,0.2414,0.2377,0.2408,0.2409,0.2394,0.2456,0.238,0.2423,0.2451,0.2452,0.2453,0,0.2157,0.2169,0.2185,0.2212,0.2219,0.2233,0.2273,0.2297,0.2341,0.2358,0.2386,0.2396,0.244,0.2415,0.247,0.2447,0.2454,0.2464,0.2466,0.245,0.2415,0.2388,0.2437,0.2384,0.2465,0.2464,0.2464,0,0.2134,0.2159,0.2171,0.2179,0.2216,0.2233,0.2255,0.2303,0.2325,0.2392,0.2409,0.246,0.248,0.2509,0.2525,0.2504,0.258,0.255,0.2548,0.2547,0.2486,0.2477,0.2487,0.2591,0.2591,0.2591,0.2591,0,0.2121,0.2128,0.2159,0.2165,0.2182,0.222,0.225,0.2289,0.2344,0.2378,0.2425,0.2465,0.2504,0.2542,0.2555,0.2585,0.2604,0.2575,0.257,0.2497,0.2489,0.2442,0.2408,0.2593,0.2593,0.2592,0.2592,0,0.2089,0.2112,0.2121,0.2158,0.2169,0.218,0.2226,0.2251,0.2315,0.2365,0.2387,0.2471,0.2543,0.2573,0.2633,0.2617,0.2582,0.2652,0.2565,0.2549,0.2493,0.2463,0.2379,0.2291,0.2667,0.2668,0.2668,0,0.2071,0.2075,0.2101,0.2106,0.2121,0.2144,0.2163,0.2226,0.2262,0.237,0.2395,0.2483,0.2542,0.2627,0.265,0.2684,0.2589,0.2614,0.2563,0.2502,0.2465,0.2354,0.2277,0.2496,0.2495,0.2494,0.2493,0,0.2037,0.2049,0.206,0.2068,0.208,0.2088,0.2127,0.2142,0.2232,0.2279,0.2363,0.2422,0.2537,0.256,0.2617,0.2626,0.2491,0.2595,0.2551,0.2362,0.222,0.2128,0.2445,0.2484,0.2485,0.2486,0.2486,0.2487,0.201,0.2005,0.2022,0.2017,0.203,0.2025,0.2,0.2062,0.2095,0.2148,0.2279,0.2337,0.2446,0.2532,0.2526,0.2486,0.2442,0.2414,0.2394,0.2295,0.2176,0.2481,0.2501,0.2502,0.2503,0.2504,0.2505,0,0.196,0.1964,0.1968,0.1954,0.1927,0.1956,0.1966,0.1929,0.1934,0.2046,0.2105,0.2223,0.228,0.2354,0.2386,0.2298,0.2166,0.2231,0.2055,0.1994,0.2298,0.2258,0.2201,0.2201,0.2201,0.2201,0.2201,0.2201,0.1941,0.1919,0.1912,0.1846,0.1831,0.1759,0.1733,0.1714,0.176,0.1791,0.1863,0.197,0.2133,0.2259,0.2226,0.2165,0.1965,0.1888,0.1851,0.2085,0.2099,0.2113,0.2069,0.1973,0.1972,0.1458,0.1455,0.1452]},{"header":{"parameterUnit":"m.s-1","parameterCategory":2,"la1":30.2991,"la2":30.254,"lo1":-89.0895,"lo2":-89.0444,"dy":0.0017,"dx":0.0017,"nx":28,"ny":28,"refTime":"2023-11-01T09:00:00:Z","depth":"0","parameterNumber":3,"parameterNumberName":"V-component_of_CURRENTS"},"data":[0,0,0,0,0,0,0,0,0,0,0,0,0,0,0,0,0,0,0,0,0,0,0,0,0,0,0,0,0,0,0,0,0,0,0,0,0,0,0,0,0,0,0,0,0,0,0,0,0,0,0,0,0,0,0,0,0,0,-0.0112,-0.0113,0,-0.0143,-0.0143,-0.0144,-0.0161,-0.0161,-0.0161,-0.0161,-0.0212,-0.0213,-0.0215,0,0,0,0,0,0,0,0,0,0,0,0,0,-0.0107,-0.0106,-0.0112,-0.0113,-0.0113,-0.0143,-0.0143,-0.0144,-0.0161,-0.0161,-0.0161,-0.0161,-0.0212,-0.0213,-0.0215,0,0,0,0,0,0,0,0,0,0,0,0,0,-0.012,-0.0106,-0.0112,-0.0125,-0.0127,-0.0143,-0.0143,-0.0144,-0.0161,-0.0161,-0.0161,-0.0162,-0.0211,-0.0213,-0.0215,-0.0225,0,0,-0.0221,-0.0222,0,0,0,0,0,0,0,0,-0.0119,-0.012,-0.0123,-0.0125,-0.0126,-0.0148,-0.016,-0.0172,-0.0161,-0.0148,-0.0161,-0.0162,-0.0193,-0.0196,-0.0201,-0.0228,-0.023,-0.0221,-0.0222,-0.0223,-0.0224,0,0,0,0,0,0,0,-0.0118,-0.012,-0.0125,-0.0124,-0.0125,-0.0142,-0.0144,-0.0162,-0.017,-0.0149,-0.0151,-0.0154,-0.0194,-0.0199,-0.0203,-0.023,-0.0221,-0.0223,-0.0224,-0.0225,-0.0265,-0.0264,0,0,0,0,0,0,-0.0112,-0.0118,-0.0124,-0.0126,-0.0123,-0.0142,-0.0144,-0.0141,-0.0169,-0.0174,-0.0154,-0.0155,-0.0196,-0.02,-0.0205,-0.0208,-0.0223,-0.0225,-0.0226,-0.0265,-0.0265,-0.0264,0,0,0,0,0,0,-0.0112,-0.0112,-0.0122,-0.0123,-0.0125,-0.0142,-0.0139,-0.0142,-0.0146,-0.0173,-0.0177,-0.0155,-0.0196,-0.0202,-0.0216,-0.021,-0.0226,-0.0228,-0.0265,-0.0265,-0.0264,-0.0221,0,0,0,0,0,0,-0.0112,-0.0112,-0.0108,-0.0122,-0.0125,-0.0127,-0.0139,-0.0142,-0.0148,-0.015,-0.0175,-0.018,-0.0197,-0.0213,-0.0218,-0.0213,-0.0229,-0.0265,-0.0265,-0.0265,-0.0222,-0.0219,-0.0216,0,0,0,0,0,-0.0111,-0.0103,-0.0108,-0.0108,-0.0119,-0.0126,-0.0129,-0.0142,-0.0148,-0.0147,-0.0164,-0.0179,-0.0215,-0.0214,-0.022,-0.0216,-0.0265,-0.0265,-0.0265,-0.0224,-0.022,-0.0216,0,0,0,0,0,0,-0.0099,-0.0104,-0.011,-0.0104,-0.0113,-0.0129,-0.013,-0.0139,-0.0152,-0.0153,-0.0178,-0.0184,-0.0194,-0.0212,-0.021,-0.0228,-0.0243,-0.0244,-0.021,-0.0206,-0.0203,-0.0187,-0.0231,0,0,0,0,0,-0.0094,-0.0088,-0.01,-0.0095,-0.0098,-0.0114,-0.0119,-0.0126,-0.014,-0.0145,-0.0163,-0.0183,-0.0198,-0.0207,-0.0225,-0.0234,-0.025,-0.0236,-0.0233,-0.023,-0.0221,-0.0239,-0.0237,-0.0264,-0.0264,-0.0264,0,0,-0.009,-0.0091,-0.0089,-0.0092,-0.0101,-0.0098,-0.0117,-0.012,-0.0115,-0.0149,-0.015,-0.0173,-0.0199,-0.0207,-0.0214,-0.0221,-0.0232,-0.023,-0.0227,-0.022,-0.0239,-0.0236,-0.0234,-0.0263,-0.0264,-0.0264,0,0,-0.0074,-0.0077,-0.0067,-0.0071,-0.0078,-0.0086,-0.0085,-0.0099,-0.0102,-0.0109,-0.013,-0.0147,-0.0174,-0.0187,-0.0198,-0.019,-0.0216,-0.02,-0.0171,-0.0188,-0.0186,-0.0184,-0.0203,-0.0203,-0.0198,-0.0197,-0.0197,0,-0.0068,-0.0054,-0.0066,-0.0058,-0.0055,-0.0077,-0.0065,-0.0072,-0.0088,-0.0086,-0.0104,-0.0137,-0.0162,-0.0167,-0.0166,-0.0182,-0.0197,-0.0181,-0.0183,-0.0182,-0.018,-0.0201,-0.0201,-0.0195,-0.0196,-0.0196,-0.0196,0,-0.0044,-0.0035,-0.0029,-0.0022,-0.0023,-0.0016,-0.0026,-0.0024,-0.0035,-0.0046,-0.0055,-0.0091,-0.0109,-0.0124,-0.0143,-0.0146,-0.0161,-0.0177,-0.0189,-0.0175,-0.0197,-0.0199,-0.0192,-0.0193,-0.0194,-0.0194,0,0,-0.0017,-0.0013,-0.0008,0.0004,-0.0001,0.0006,0.0016,0.0021,0.0037,0.0006,0.0018,-0.0022,-0.0044,-0.0058,-0.0088,-0.0108,-0.0119,-0.0136,-0.0138,-0.0148,-0.0159,-0.0165,-0.0167,-0.0135,-0.0135,-0.0135,-0.0178,0,0.0008,0.0035,0.003,0.0058,0.0072,0.0062,0.0076,0.0077,0.007,0.0074,0.0035,0.0026,-0.0018,-0.0027,-0.0052,-0.0097,-0.0121,-0.0106,-0.0176,-0.0178,-0.018,-0.0168,-0.0153,-0.019,-0.018,-0.018,-0.0181,0,0.0041,0.0055,0.0087,0.0109,0.0115,0.0129,0.0157,0.0167,0.0163,0.0155,0.0135,0.01,0.0071,0.0027,-0.0042,-0.003,-0.0089,-0.0133,-0.0136,-0.0155,-0.0186,-0.0203,-0.0193,-0.0299,-0.0183,-0.0183,-0.0183,0,0.0078,0.01,0.0131,0.0137,0.0153,0.0174,0.0187,0.0194,0.0215,0.0208,0.0214,0.0166,0.0151,0.0074,-0.0016,-0.003,-0.0094,-0.0127,-0.019,-0.0191,-0.0198,-0.02,-0.0292,-0.018,-0.018,-0.018,-0.018,0,0.0115,0.014,0.0153,0.0172,0.0219,0.0215,0.0261,0.027,0.0284,0.0321,0.0258,0.0274,0.0162,0.011,0.0013,-0.0082,-0.0073,-0.0178,-0.0199,-0.0183,-0.0183,-0.0292,-0.0371,-0.0181,-0.0181,-0.0181,-0.018,0,0.0151,0.0157,0.0196,0.0224,0.0238,0.0273,0.0313,0.0347,0.035,0.0398,0.0398,0.0359,0.0297,0.0179,0.0064,-0.0033,-0.0204,-0.0175,-0.0148,-0.0165,-0.0328,-0.0406,-0.0536,-0.0601,-0.0254,-0.0255,-0.0255,0,0.0171,0.0195,0.0239,0.027,0.0285,0.033,0.0366,0.0383,0.0426,0.046,0.0493,0.0445,0.0432,0.0255,0.0082,-0.0084,-0.0211,-0.0197,-0.0226,-0.0329,-0.0431,-0.0489,-0.0539,-0.0224,-0.0224,-0.0224,-0.0224,0,0.0214,0.0228,0.0261,0.0322,0.0367,0.0416,0.0472,0.0515,0.0552,0.0593,0.0648,0.0639,0.0483,0.0335,0.0101,-0.0029,-0.0285,-0.0203,-0.0316,-0.0418,-0.0481,-0.0555,-0.021,-0.0224,-0.0224,-0.0224,-0.0224,-0.0224,0.0251,0.0279,0.0322,0.0378,0.0432,0.05,0.0544,0.0614,0.0691,0.0766,0.0764,0.0774,0.0559,0.0249,0.0061,-0.0271,-0.0299,-0.0373,-0.046,-0.0509,-0.0571,-0.0224,-0.0257,-0.0257,-0.0257,-0.0258,-0.0258,0,0.0296,0.0324,0.0377,0.0442,0.0497,0.0521,0.0613,0.0661,0.076,0.0842,0.0887,0.0793,0.0513,0.0208,-0.022,-0.0463,-0.0578,-0.0613,-0.0696,-0.0736,-0.0424,-0.042,-0.0481,-0.0481,-0.0481,-0.0481,-0.0481,-0.0481,0.0323,0.0373,0.039,0.0481,0.0528,0.0595,0.0645,0.0732,0.0804,0.0878,0.0892,0.0882,0.0657,-0.0057,-0.0573,-0.0713,-0.0919,-0.0962,-0.1074,-0.0859,-0.0843,-0.0828,-0.084,-0.0989,-0.0989,-0.1335,-0.1339,-0.1341]}],[{"header":{"parameterUnit":"m.s-1","parameterCategory":2,"la1":30.2991,"la2":30.254,"lo1":-89.0895,"lo2":-89.0444,"dy":0.0017,"dx":0.0017,"nx":28,"ny":28,"refTime":"2023-11-01T09:00:00:Z","depth":"2","parameterNumber":2,"parameterNumberName":"U-component_of_CURRENTS"},"data":[0,0,0,0,0,0,0,0,0,0,0,0,0,0,0,0,0,0,0,0,0,0,0,0,0,0,0,0,0,0,0,0,0,0,0,0,0,0,0,0,0,0,0,0,0,0,0,0,0,0,0,0,0,0,0,0,0,0,0.2161,0.2161,0,0.2141,0.2141,0.214,0.2126,0.2126,0.2126,0.2126,0.2109,0.2109,0.2108,0,0,0,0,0,0,0,0,0,0,0,0,0,0.2183,0.2183,0.2161,0.2161,0.2161,0.2141,0.2141,0.214,0.2126,0.2126,0.2126,0.2126,0.211,0.2109,0.2108,0,0,0,0,0,0,0,0,0,0,0,0,0,0.2168,0.2183,0.2161,0.2153,0.2152,0.2141,0.2141,0.214,0.2126,0.2126,0.2126,0.2126,0.211,0.2109,0.2108,0.2102,0,0,0.2106,0.2106,0,0,0,0,0,0,0,0,0.2168,0.2167,0.2154,0.2153,0.2152,0.2138,0.2143,0.2128,0.2126,0.2134,0.2126,0.2126,0.212,0.2119,0.2112,0.2101,0.21,0.2106,0.2105,0.2105,0.2105,0,0,0,0,0,0,0,0.217,0.2167,0.2151,0.2154,0.2153,0.2149,0.2147,0.214,0.2125,0.2133,0.2133,0.2134,0.212,0.2113,0.2112,0.21,0.2106,0.2105,0.2105,0.2104,0.2128,0.2129,0,0,0,0,0,0,0.2176,0.2168,0.2152,0.2151,0.2163,0.2149,0.2146,0.2141,0.2125,0.2124,0.2133,0.2133,0.2114,0.2112,0.2111,0.2137,0.2105,0.2104,0.2104,0.2127,0.2128,0.213,0,0,0,0,0,0,0.2176,0.2174,0.2152,0.2161,0.2158,0.2149,0.2143,0.214,0.2143,0.2126,0.2124,0.2139,0.2114,0.2112,0.2117,0.2135,0.2104,0.2103,0.2126,0.2127,0.2129,0.2166,0,0,0,0,0,0,0.2177,0.2174,0.2175,0.2161,0.2158,0.2159,0.2143,0.214,0.2143,0.2143,0.213,0.2128,0.2114,0.2118,0.2116,0.2133,0.2103,0.2124,0.2126,0.2128,0.2164,0.2169,0.2174,0,0,0,0,0,0.2178,0.2177,0.2175,0.2173,0.2158,0.216,0.2158,0.215,0.2144,0.2151,0.2142,0.2129,0.213,0.2118,0.2115,0.2133,0.2123,0.2126,0.2128,0.2161,0.2168,0.2173,0,0,0,0,0,0,0.2182,0.2175,0.2172,0.2168,0.2171,0.2158,0.2161,0.2157,0.2154,0.2153,0.2136,0.2134,0.2149,0.2136,0.2124,0.2148,0.2127,0.2129,0.2153,0.2159,0.2164,0.2176,0.2102,0,0,0,0,0,0.2185,0.2185,0.2181,0.2179,0.2181,0.2174,0.2174,0.2171,0.2165,0.2164,0.2155,0.215,0.2156,0.2154,0.2154,0.2159,0.2164,0.2172,0.2177,0.2181,0.2191,0.2217,0.2225,0.2138,0.2138,0.2138,0,0,0.2185,0.2183,0.2181,0.2182,0.2179,0.2185,0.2174,0.2179,0.2187,0.2163,0.2169,0.2169,0.2163,0.2175,0.218,0.2165,0.2209,0.2184,0.2188,0.2195,0.222,0.2229,0.2236,0.2139,0.2139,0.2139,0,0,0.2189,0.2186,0.219,0.2195,0.2201,0.2198,0.2205,0.22,0.2204,0.2207,0.2203,0.2216,0.2205,0.2214,0.2215,0.2249,0.2239,0.2248,0.2275,0.23,0.2307,0.2314,0.2332,0.234,0.2245,0.2245,0.2245,0,0.2191,0.2191,0.2193,0.2202,0.2208,0.2208,0.2217,0.2221,0.222,0.2228,0.2215,0.223,0.2226,0.2255,0.2268,0.226,0.2269,0.225,0.2306,0.2313,0.2319,0.2336,0.2344,0.2247,0.2247,0.2246,0.2246,0,0.2198,0.2203,0.2207,0.2218,0.2228,0.2235,0.2245,0.2256,0.2255,0.2257,0.2284,0.2283,0.2292,0.2298,0.229,0.2336,0.2327,0.2314,0.229,0.233,0.2345,0.2353,0.225,0.2249,0.2248,0.2248,0,0,0.2185,0.2207,0.2208,0.2216,0.2236,0.224,0.2267,0.2285,0.2305,0.2307,0.2332,0.2348,0.2351,0.2355,0.2357,0.2379,0.2429,0.2365,0.2366,0.2382,0.2484,0.2469,0.2475,0.2424,0.2425,0.2427,0.2477,0,0.2189,0.2204,0.222,0.2235,0.2241,0.2261,0.2286,0.2307,0.2324,0.235,0.2364,0.2389,0.2373,0.2387,0.2407,0.243,0.2452,0.2417,0.2445,0.2446,0.2426,0.2485,0.2254,0.2279,0.2485,0.2486,0.2487,0,0.2185,0.2197,0.2214,0.2242,0.2248,0.2263,0.2304,0.2328,0.2373,0.239,0.242,0.2431,0.2475,0.2452,0.2506,0.2483,0.249,0.25,0.2501,0.2481,0.2446,0.2273,0.2285,0.25,0.2499,0.2498,0.2497,0,0.2163,0.2189,0.2201,0.221,0.2246,0.2264,0.2286,0.2335,0.2358,0.2424,0.2441,0.2493,0.2514,0.2542,0.2558,0.2538,0.2611,0.2582,0.2574,0.2572,0.2379,0.2359,0.2622,0.2622,0.2622,0.2622,0.2621,0,0.2151,0.2159,0.219,0.2196,0.2214,0.2252,0.2283,0.2322,0.2377,0.241,0.2458,0.2497,0.2538,0.2574,0.2586,0.2612,0.2633,0.2599,0.2594,0.2387,0.2367,0.2556,0.2548,0.2623,0.2623,0.2623,0.2622,0,0.212,0.2143,0.2153,0.2191,0.2202,0.2214,0.2261,0.2286,0.235,0.2399,0.2421,0.2503,0.2571,0.2601,0.2659,0.2642,0.2674,0.2671,0.2428,0.2395,0.2609,0.2603,0.2677,0.2677,0.2677,0.2677,0.2677,0,0.2103,0.2108,0.2135,0.214,0.2156,0.218,0.2199,0.2263,0.2298,0.2403,0.2426,0.2512,0.2561,0.2641,0.2634,0.2657,0.2696,0.246,0.239,0.2633,0.262,0.2613,0.2606,0.214,0.2135,0.2132,0.2129,0,0.2071,0.2084,0.2095,0.2103,0.2117,0.2125,0.2165,0.218,0.2268,0.2309,0.2387,0.2437,0.2521,0.2451,0.2491,0.2475,0.2442,0.2392,0.27,0.2179,0.2135,0.212,0.2128,0.2097,0.21,0.2103,0.2104,0.2106,0.2046,0.2042,0.2058,0.2055,0.2068,0.2064,0.204,0.2088,0.2115,0.2141,0.227,0.2259,0.2291,0.2246,0.2193,0.215,0.2329,0.2207,0.2213,0.2224,0.217,0.2131,0.2082,0.2085,0.2087,0.209,0.2092,0,0.1991,0.2002,0.2007,0.1994,0.1961,0.1997,0.2005,0.1958,0.1941,0.2002,0.2025,0.1878,0.1834,0.1872,0.176,0.1787,0.1722,0.1714,0.1588,0.1622,0.1653,0.1564,0.1317,0.1315,0.1312,0.131,0,0,0.1971,0.1947,0.194,0.1875,0.1867,0.1795,0.177,0.1728,0.1735,0.1681,0.1649,0.1737,0.1825,0.1535,0.1511,0.1394,0.1493,0.134,0.1965,0.1851,0.1878,0.1948,0.1855,0,0,0,0,0]},{"header":{"parameterUnit":"m.s-1","parameterCategory":2,"la1":30.2991,"la2":30.254,"lo1":-89.0895,"lo2":-89.0444,"dy":0.0017,"dx":0.0017,"nx":28,"ny":28,"refTime":"2023-11-01T09:00:00:Z","depth":"2","parameterNumber":3,"parameterNumberName":"V-component_of_CURRENTS"},"data":[0,0,0,0,0,0,0,0,0,0,0,0,0,0,0,0,0,0,0,0,0,0,0,0,0,0,0,0,0,0,0,0,0,0,0,0,0,0,0,0,0,0,0,0,0,0,0,0,0,0,0,0,0,0,0,0,0,0,-0.0075,-0.0075,0,-0.0105,-0.0105,-0.0105,-0.0124,-0.0124,-0.0124,-0.0124,-0.0174,-0.0175,-0.0176,0,0,0,0,0,0,0,0,0,0,0,0,0,-0.0068,-0.0068,-0.0075,-0.0075,-0.0076,-0.0105,-0.0105,-0.0105,-0.0124,-0.0124,-0.0124,-0.0124,-0.0173,-0.0175,-0.0176,0,0,0,0,0,0,0,0,0,0,0,0,0,-0.0082,-0.0068,-0.0075,-0.0088,-0.009,-0.0105,-0.0105,-0.0106,-0.0124,-0.0124,-0.0124,-0.0124,-0.0173,-0.0174,-0.0176,-0.0185,0,0,-0.0182,-0.0183,0,0,0,0,0,0,0,0,-0.0081,-0.0082,-0.0086,-0.0087,-0.0089,-0.0111,-0.0121,-0.0133,-0.0124,-0.0111,-0.0124,-0.0124,-0.0154,-0.0158,-0.0163,-0.0187,-0.0189,-0.0182,-0.0183,-0.0184,-0.0184,0,0,0,0,0,0,0,-0.008,-0.0081,-0.0087,-0.0086,-0.0088,-0.0105,-0.0106,-0.0123,-0.0132,-0.0112,-0.0113,-0.0117,-0.0155,-0.0161,-0.0164,-0.019,-0.0182,-0.0184,-0.0185,-0.0186,-0.0223,-0.0223,0,0,0,0,0,0,-0.0074,-0.008,-0.0086,-0.0088,-0.0085,-0.0104,-0.0106,-0.0104,-0.0131,-0.0135,-0.0116,-0.0117,-0.0158,-0.0162,-0.0166,-0.0169,-0.0184,-0.0186,-0.0187,-0.0223,-0.0223,-0.0223,0,0,0,0,0,0,-0.0074,-0.0074,-0.0085,-0.0085,-0.0087,-0.0104,-0.0101,-0.0104,-0.0109,-0.0134,-0.0139,-0.0118,-0.0158,-0.0163,-0.0176,-0.0171,-0.0187,-0.0188,-0.0223,-0.0223,-0.0223,-0.018,0,0,0,0,0,0,-0.0073,-0.0074,-0.0071,-0.0084,-0.0087,-0.0089,-0.0101,-0.0105,-0.0111,-0.0112,-0.0138,-0.0142,-0.0158,-0.0173,-0.0178,-0.0174,-0.019,-0.0223,-0.0223,-0.0223,-0.0182,-0.0178,-0.0176,0,0,0,0,0,-0.0073,-0.0065,-0.007,-0.0071,-0.0082,-0.0088,-0.0091,-0.0104,-0.0111,-0.011,-0.0126,-0.0141,-0.0176,-0.0175,-0.018,-0.0176,-0.0223,-0.0223,-0.0223,-0.0183,-0.0179,-0.0176,0,0,0,0,0,0,-0.0062,-0.0067,-0.0072,-0.0067,-0.0076,-0.0091,-0.0092,-0.0102,-0.0114,-0.0116,-0.014,-0.0145,-0.0156,-0.0173,-0.0171,-0.0187,-0.0202,-0.0203,-0.017,-0.0167,-0.0164,-0.0149,-0.0191,0,0,0,0,0,-0.0057,-0.0052,-0.0063,-0.0059,-0.0061,-0.0077,-0.0082,-0.009,-0.0102,-0.0108,-0.0126,-0.0145,-0.0159,-0.0168,-0.0184,-0.0193,-0.0209,-0.0195,-0.0192,-0.0189,-0.0181,-0.0199,-0.0196,-0.0222,-0.0222,-0.0222,0,0,-0.0053,-0.0054,-0.0052,-0.0056,-0.0064,-0.0061,-0.008,-0.0083,-0.0078,-0.0112,-0.0113,-0.0136,-0.0159,-0.0167,-0.0173,-0.018,-0.0191,-0.0189,-0.0186,-0.0179,-0.0198,-0.0195,-0.0193,-0.0222,-0.0222,-0.0222,0,0,-0.0038,-0.0041,-0.0031,-0.0035,-0.0042,-0.005,-0.0049,-0.0063,-0.0066,-0.0073,-0.0094,-0.011,-0.0136,-0.0148,-0.0158,-0.015,-0.0175,-0.0159,-0.0131,-0.0148,-0.0146,-0.0144,-0.0164,-0.0164,-0.0157,-0.0157,-0.0157,0,-0.0032,-0.0019,-0.0031,-0.0023,-0.002,-0.0041,-0.0029,-0.0036,-0.0052,-0.005,-0.0068,-0.01,-0.0124,-0.0127,-0.0126,-0.0142,-0.0158,-0.0141,-0.0143,-0.0142,-0.0141,-0.0162,-0.0162,-0.0155,-0.0155,-0.0155,-0.0155,0,-0.0009,-0.0001,0.0005,0.0012,0.0012,0.0018,0.001,0.0011,-0.0,-0.0011,-0.002,-0.0055,-0.0071,-0.0086,-0.0105,-0.0107,-0.0123,-0.0137,-0.0149,-0.0135,-0.0159,-0.016,-0.0152,-0.0152,-0.0153,-0.0153,0,0,0.0016,0.0021,0.0025,0.0037,0.0033,0.004,0.005,0.0057,0.0071,0.0041,0.0052,0.0015,-0.0008,-0.0022,-0.0051,-0.0069,-0.0082,-0.0097,-0.0099,-0.0111,-0.0122,-0.0131,-0.0134,-0.0097,-0.0097,-0.0097,-0.0142,0,0.004,0.0067,0.0062,0.009,0.0104,0.0095,0.011,0.0111,0.0104,0.0108,0.007,0.0061,0.0018,0.0009,-0.0016,-0.006,-0.0084,-0.0069,-0.0138,-0.014,-0.0145,-0.0135,-0.0113,-0.0151,-0.0144,-0.0144,-0.0144,0,0.0071,0.0086,0.0117,0.014,0.0147,0.016,0.0189,0.0198,0.0195,0.0187,0.0167,0.0133,0.0104,0.0061,-0.0008,0.0004,-0.0054,-0.0097,-0.01,-0.0121,-0.0152,-0.0164,-0.0154,-0.0148,-0.0147,-0.0147,-0.0147,0,0.0107,0.013,0.016,0.0166,0.0184,0.0204,0.0217,0.0224,0.0246,0.0238,0.0243,0.0197,0.0181,0.0105,0.0016,0.0003,-0.0062,-0.0092,-0.0157,-0.0159,-0.016,-0.0162,-0.0146,-0.0146,-0.0145,-0.0145,-0.0145,0,0.0142,0.0167,0.0181,0.02,0.0245,0.0243,0.0288,0.0297,0.0311,0.0347,0.0286,0.03,0.0192,0.0139,0.0043,-0.0052,-0.0042,-0.0147,-0.0167,-0.0146,-0.0145,-0.0159,-0.0159,-0.0147,-0.0147,-0.0146,-0.0146,0,0.0176,0.0183,0.0221,0.0249,0.0264,0.0298,0.0338,0.0371,0.0375,0.0421,0.042,0.0382,0.0319,0.0204,0.0089,-0.0006,-0.0106,-0.0147,-0.0114,-0.013,-0.0203,-0.0201,-0.0227,-0.0228,-0.0228,-0.0229,-0.0229,0,0.0196,0.0219,0.0262,0.0293,0.0308,0.0352,0.0388,0.0406,0.0447,0.048,0.0512,0.0462,0.0446,0.027,0.0102,-0.0063,-0.0095,-0.0167,-0.0193,-0.0192,-0.021,-0.0207,-0.0205,-0.0183,-0.0183,-0.0183,-0.0183,0,0.0236,0.025,0.0282,0.0342,0.0387,0.0435,0.0491,0.0533,0.057,0.0607,0.0657,0.0645,0.0491,0.0337,0.0106,-0.0009,-0.014,-0.0172,-0.0172,-0.0163,-0.0153,-0.017,-0.0169,-0.0183,-0.0183,-0.0183,-0.0183,-0.0183,0.0271,0.0298,0.0341,0.0396,0.0449,0.0517,0.056,0.0622,0.0694,0.0747,0.0752,0.072,0.0566,0.0264,0.0086,-0.0125,-0.0127,-0.0216,-0.0215,-0.0214,-0.0198,-0.0189,-0.0223,-0.0223,-0.0223,-0.0223,-0.0224,0,0.0314,0.034,0.0392,0.0457,0.0511,0.0535,0.0626,0.0662,0.0746,0.0786,0.0811,0.0657,0.0495,0.0298,-0.0004,-0.0174,-0.0188,-0.0238,-0.0215,-0.0214,-0.0213,-0.0196,-0.0221,-0.0222,-0.0222,-0.0223,0,0,0.034,0.0388,0.0406,0.0493,0.0539,0.0603,0.0652,0.0713,0.0748,0.0778,0.0755,0.0732,0.0527,0.0312,0.01,-0.007,-0.0113,-0.0108,-0.0092,-0.0039,-0.0036,-0.0181,-0.0152,0,0,0,0,0]}],[{"header":{"parameterUnit":"m.s-1","parameterCategory":2,"la1":30.2991,"la2":30.254,"lo1":-89.0895,"lo2":-89.0444,"dy":0.0017,"dx":0.0017,"nx":28,"ny":28,"refTime":"2023-11-01T09:00:00:Z","depth":"4","parameterNumber":2,"parameterNumberName":"U-component_of_CURRENTS"},"data":[0,0,0,0,0,0,0,0,0,0,0,0,0,0,0,0,0,0,0,0,0,0,0,0,0,0,0,0,0,0,0,0,0,0,0,0,0,0,0,0,0,0,0,0,0,0,0,0,0,0,0,0,0,0,0,0,0,0,0.1422,0.1422,0,0.1455,0.1455,0.1456,0.1496,0.1497,0.1498,0.1499,0.1544,0.1545,0.1545,0,0,0,0,0,0,0,0,0,0,0,0,0,0.1368,0.1368,0.1422,0.1422,0.1423,0.1455,0.1455,0.1456,0.1496,0.1497,0.1498,0.1499,0.1544,0.1545,0.1545,0,0,0,0,0,0,0,0,0,0,0,0,0,0.1393,0.1369,0.1422,0.1448,0.1451,0.1455,0.1455,0.1456,0.1496,0.1497,0.1498,0.1499,0.1544,0.1545,0.1545,0.1525,0,0,0.1548,0.1548,0,0,0,0,0,0,0,0,0.1392,0.1395,0.1444,0.1447,0.145,0.1475,0.1453,0.148,0.1496,0.1477,0.1499,0.15,0.1523,0.1525,0.1526,0.1527,0.1529,0.1548,0.1548,0.1548,0.1549,0,0,0,0,0,0,0,0.139,0.1393,0.1433,0.1444,0.1448,0.145,0.1455,0.1458,0.1491,0.1479,0.1482,0.1489,0.1524,0.1525,0.1527,0.153,0.1548,0.1548,0.1549,0.1549,0.1614,0.1616,0,0,0,0,0,0,0.139,0.1392,0.1432,0.1434,0.1425,0.1451,0.1456,0.1464,0.1491,0.1497,0.1488,0.149,0.1523,0.1526,0.1529,0.1593,0.1548,0.1549,0.1549,0.1613,0.1615,0.1616,0,0,0,0,0,0,0.1389,0.1393,0.1431,0.1415,0.1421,0.1451,0.1459,0.1464,0.1499,0.1498,0.1504,0.1521,0.1524,0.1528,0.1562,0.1592,0.1549,0.155,0.1611,0.1614,0.1615,0.1666,0,0,0,0,0,0,0.1387,0.1392,0.1411,0.1415,0.1422,0.1455,0.1458,0.1464,0.1499,0.1505,0.1528,0.1532,0.1525,0.1561,0.1563,0.1592,0.155,0.161,0.1612,0.1615,0.1663,0.167,0.1676,0,0,0,0,0,0.1385,0.14,0.1412,0.1418,0.1442,0.1456,0.146,0.1483,0.15,0.1519,0.1538,0.1533,0.1578,0.1562,0.1564,0.1595,0.1609,0.1612,0.1615,0.166,0.1668,0.1675,0,0,0,0,0,0,0.1386,0.1406,0.1419,0.1441,0.146,0.1465,0.1487,0.1501,0.1529,0.1544,0.1545,0.155,0.1593,0.1586,0.1569,0.1622,0.1594,0.1598,0.1628,0.1636,0.1642,0.1647,0.1551,0,0,0,0,0,0.1394,0.1416,0.143,0.1452,0.1464,0.1482,0.1497,0.1513,0.1531,0.1547,0.1563,0.1582,0.16,0.1613,0.1625,0.1649,0.1649,0.1671,0.1678,0.1683,0.1689,0.1716,0.1725,0.1626,0.1626,0.1626,0,0,0.1401,0.1416,0.143,0.1456,0.1473,0.1491,0.1495,0.1527,0.155,0.1546,0.1593,0.1608,0.1613,0.1645,0.1663,0.1646,0.1713,0.1687,0.1691,0.1695,0.172,0.1729,0.1738,0.1628,0.1628,0.1627,0,0,0.1413,0.1441,0.146,0.1478,0.1511,0.152,0.1537,0.1561,0.1587,0.1621,0.1632,0.1667,0.1688,0.17,0.1706,0.1754,0.1749,0.1764,0.1797,0.1823,0.1832,0.1839,0.1856,0.1864,0.1764,0.1764,0.1764,0,0.1424,0.1447,0.1469,0.149,0.151,0.1537,0.1559,0.1581,0.1617,0.1639,0.1647,0.1703,0.1713,0.175,0.1772,0.1769,0.1781,0.1766,0.1831,0.1839,0.1845,0.1861,0.187,0.1767,0.1766,0.1766,0.1766,0,0.1439,0.147,0.1484,0.1521,0.1544,0.157,0.1599,0.1635,0.1669,0.1687,0.1746,0.1763,0.1797,0.1809,0.1806,0.1861,0.1854,0.1839,0.181,0.1858,0.1872,0.188,0.1771,0.177,0.1769,0.1768,0,0,0.1424,0.1484,0.1492,0.1516,0.1565,0.158,0.1629,0.167,0.1709,0.1751,0.1797,0.1839,0.1862,0.1871,0.1881,0.1906,0.1966,0.1899,0.1899,0.1914,0.2027,0.1898,0.1894,0.1966,0.1968,0.1969,0.2019,0,0.1431,0.1473,0.1504,0.1549,0.1569,0.1615,0.1654,0.1699,0.1745,0.1796,0.1831,0.1882,0.1881,0.1913,0.1939,0.1964,0.199,0.1954,0.198,0.1981,0.1859,0.19,0.1974,0.2024,0.2026,0.2027,0.2028,0,0.1426,0.1458,0.1503,0.1563,0.1578,0.1616,0.1688,0.1728,0.1801,0.184,0.1898,0.1928,0.1988,0.1976,0.2041,0.2022,0.2035,0.2043,0.2045,0.1911,0.1867,0.1966,0.2043,0.2041,0.204,0.2039,0.2039,0,0.1387,0.1452,0.1491,0.1512,0.1584,0.1627,0.1674,0.1748,0.1787,0.1883,0.1918,0.1988,0.2031,0.2066,0.2093,0.208,0.2148,0.2125,0.2019,0.201,0.2089,0.208,0.2167,0.2167,0.2167,0.2167,0.2167,0,0.1361,0.1395,0.1485,0.1504,0.1556,0.1619,0.1684,0.1743,0.1825,0.1866,0.1947,0.1983,0.2059,0.2099,0.2116,0.2089,0.2169,0.2031,0.2015,0.2109,0.2103,0.2094,0.2085,0.2169,0.2168,0.2168,0.2168,0,0.1304,0.1365,0.1413,0.1506,0.154,0.1581,0.1681,0.1718,0.1812,0.1871,0.1905,0.1997,0.2051,0.2101,0.2159,0.2099,0.2101,0.2072,0.2179,0.2167,0.1941,0.1935,0.1953,0.1949,0.1946,0.1943,0.194,0,0.1275,0.1298,0.1404,0.1436,0.1487,0.156,0.1601,0.1703,0.1741,0.186,0.1873,0.1963,0.201,0.1978,0.2054,0.2069,0.2045,0.2026,0.1973,0.1937,0.1921,0.1919,0.1917,0.1935,0.1934,0.1933,0.1932,0,0.1217,0.1272,0.1316,0.1382,0.144,0.1483,0.1558,0.1569,0.1677,0.1773,0.1788,0.181,0.1859,0.1896,0.1918,0.1928,0.2026,0.1989,0.1996,0.1946,0.1915,0.1902,0.1904,0.192,0.1921,0.1923,0.1923,0,0.1181,0.1197,0.1266,0.131,0.1375,0.1389,0.1436,0.1472,0.1514,0.1639,0.1646,0.1742,0.1837,0.1825,0.1854,0.1846,0.1816,0.1745,0.1764,0.1779,0.1699,0.1633,0.1541,0,0,0,0,0,0.1134,0.1143,0.1183,0.1223,0.1281,0.1316,0.1395,0.1443,0.1544,0.1507,0.1567,0.1606,0.163,0.169,0.1648,0.1796,0.1837,0.174,0.1768,0.1853,0.1867,0.1789,0,0,0,0,0,0,0.1104,0.1144,0.1152,0.1139,0.1149,0.1194,0.124,0.131,0.1294,0.1403,0.1427,0.1507,0.1563,0.1635,0.1616,0.1634,0.1618,0.1806,0.1802,0.1845,0.1857,0.1869,0.1794,0,0,0,0,0]},{"header":{"parameterUnit":"m.s-1","parameterCategory":2,"la1":30.2991,"la2":30.254,"lo1":-89.0895,"lo2":-89.0444,"dy":0.0017,"dx":0.0017,"nx":28,"ny":28,"refTime":"2023-11-01T09:00:00:Z","depth":"4","parameterNumber":3,"parameterNumberName":"V-component_of_CURRENTS"},"data":[0,0,0,0,0,0,0,0,0,0,0,0,0,0,0,0,0,0,0,0,0,0,0,0,0,0,0,0,0,0,0,0,0,0,0,0,0,0,0,0,0,0,0,0,0,0,0,0,0,0,0,0,0,0,0,0,0,0,0.0057,0.0057,0,0.0038,0.0038,0.0038,0.0026,0.0026,0.0026,0.0026,0.0003,0.0002,0.0002,0,0,0,0,0,0,0,0,0,0,0,0,0,0.0064,0.0064,0.0057,0.0057,0.0057,0.0038,0.0038,0.0038,0.0026,0.0026,0.0026,0.0026,0.0003,0.0002,0.0002,0,0,0,0,0,0,0,0,0,0,0,0,0,0.0055,0.0064,0.0057,0.0049,0.0048,0.0038,0.0038,0.0038,0.0026,0.0026,0.0026,0.0026,0.0003,0.0002,0.0001,-0.0002,0,0,-0.0001,-0.0001,0,0,0,0,0,0,0,0,0.0055,0.0055,0.005,0.0049,0.0048,0.0034,0.0032,0.0024,0.0027,0.0035,0.0026,0.0026,0.0013,0.0011,0.0008,-0.0003,-0.0004,-0.0001,-0.0002,-0.0002,-0.0002,0,0,0,0,0,0,0,0.0056,0.0055,0.005,0.005,0.0049,0.0039,0.0038,0.003,0.0025,0.0034,0.0033,0.0031,0.0012,0.0009,0.0008,-0.0004,-0.0001,-0.0002,-0.0002,-0.0003,-0.0016,-0.0016,0,0,0,0,0,0,0.0059,0.0056,0.0051,0.0049,0.0051,0.0039,0.0038,0.0039,0.0025,0.0023,0.0031,0.003,0.0011,0.0009,0.0007,0.0012,-0.0002,-0.0003,-0.0003,-0.0016,-0.0016,-0.0016,0,0,0,0,0,0,0.006,0.0059,0.0051,0.0052,0.005,0.0039,0.0041,0.0039,0.0036,0.0022,0.002,0.003,0.001,0.0008,0.0003,0.001,-0.0003,-0.0004,-0.0016,-0.0016,-0.0016,0.0016,0,0,0,0,0,0,0.006,0.0059,0.0061,0.0052,0.005,0.005,0.0041,0.0039,0.0034,0.0034,0.0021,0.0019,0.001,0.0005,0.0002,0.0009,-0.0005,-0.0016,-0.0016,-0.0016,0.0015,0.0017,0.0019,0,0,0,0,0,0.006,0.0066,0.0062,0.0061,0.0054,0.005,0.0049,0.004,0.0035,0.0037,0.0028,0.0019,0.0005,0.0004,0.0002,0.0008,-0.0016,-0.0016,-0.0016,0.0013,0.0017,0.0019,0,0,0,0,0,0,0.007,0.0065,0.006,0.0064,0.0059,0.0049,0.0049,0.0042,0.0036,0.0035,0.0021,0.0019,0.0017,0.0007,0.0007,0.0004,-0.0007,-0.0008,0.0016,0.0018,0.0021,0.0028,-0.0005,0,0,0,0,0,0.0073,0.0077,0.0068,0.0071,0.0069,0.0059,0.0056,0.005,0.0043,0.0041,0.0031,0.0021,0.0016,0.0013,0.0005,0.0005,-0.0012,0.0007,0.0009,0.0011,0.0015,-0.0004,-0.0003,-0.0014,-0.0014,-0.0014,0,0,0.0077,0.0075,0.0077,0.0074,0.0068,0.0072,0.0057,0.0055,0.0061,0.0039,0.0042,0.0029,0.0017,0.0017,0.0016,0.0011,0.0005,0.0011,0.0013,0.0016,-0.0003,-0.0002,-0.0001,-0.0014,-0.0014,-0.0014,0,0,0.009,0.0086,0.0093,0.0091,0.0085,0.0081,0.0082,0.0072,0.0071,0.007,0.0057,0.0048,0.0038,0.0033,0.0029,0.0039,0.0017,0.0035,0.0055,0.0037,0.0038,0.0038,0.0015,0.0013,0.0037,0.0037,0.0037,0,0.0095,0.0103,0.0094,0.01,0.0103,0.0087,0.0097,0.0095,0.0085,0.0087,0.0076,0.0059,0.0048,0.0051,0.0054,0.0045,0.0028,0.0047,0.004,0.004,0.004,0.0016,0.0014,0.0039,0.0039,0.0039,0.0038,0,0.0112,0.0118,0.0123,0.0128,0.0129,0.0134,0.0131,0.0133,0.0126,0.0119,0.0116,0.0096,0.0087,0.0081,0.0071,0.0069,0.0053,0.0044,0.0034,0.0044,0.0017,0.0014,0.0041,0.0041,0.004,0.004,0,0,0.0128,0.0134,0.0137,0.0146,0.0145,0.0152,0.0162,0.0169,0.018,0.0161,0.0169,0.0152,0.0133,0.0127,0.011,0.0093,0.0075,0.0071,0.0069,0.005,0.0028,0.002,0.0015,0.0064,0.0063,0.0063,0.0008,0,0.0146,0.0165,0.0164,0.0188,0.0198,0.0194,0.0208,0.0211,0.0207,0.021,0.0186,0.0183,0.0154,0.0149,0.0128,0.0092,0.0069,0.009,0.002,0.0018,0.0011,0.0012,0.0062,0.0006,0.0005,0.0005,0.0004,0,0.0166,0.0178,0.0202,0.0224,0.0229,0.0242,0.0265,0.0276,0.0274,0.0269,0.0254,0.023,0.0208,0.0179,0.0118,0.0132,0.0083,0.0048,0.0045,0.0025,0.0004,-0.0005,-0.0001,-0.0001,-0.0001,-0.0,0.0,0,0.0188,0.0209,0.0232,0.0238,0.0256,0.0274,0.0287,0.0294,0.0312,0.0306,0.0309,0.0272,0.0259,0.0196,0.0123,0.0118,0.0048,0.0033,-0.0024,-0.0026,-0.0016,-0.0016,-0.0018,-0.0018,-0.0017,-0.0017,-0.0017,0,0.021,0.0231,0.0247,0.0262,0.0298,0.0301,0.0337,0.0346,0.0358,0.0379,0.0342,0.0343,0.0262,0.0211,0.0136,0.005,0.0056,-0.0021,-0.0039,-0.0002,-0.0,-0.0018,-0.0018,-0.0019,-0.0019,-0.0019,-0.0018,0,0.0228,0.0237,0.0268,0.0296,0.0309,0.0336,0.0375,0.0398,0.0406,0.0432,0.0432,0.0398,0.0332,0.0243,0.0142,0.0074,-0.0012,-0.0047,-0.0,-0.0015,-0.008,-0.0077,-0.0117,-0.0118,-0.0119,-0.0119,-0.012,0,0.0238,0.0255,0.0295,0.0318,0.0333,0.0371,0.0399,0.0422,0.0448,0.0465,0.0479,0.043,0.0391,0.0247,0.0147,-0.0,-0.0025,-0.0077,-0.0082,-0.0076,-0.009,-0.0086,-0.0082,-0.0121,-0.0121,-0.0121,-0.0121,0,0.0255,0.027,0.0294,0.0339,0.0376,0.0418,0.046,0.0482,0.0509,0.0518,0.0514,0.0441,0.0368,0.0251,0.0138,0.0032,-0.0045,-0.0084,-0.0084,-0.0089,-0.0081,-0.0092,-0.0088,-0.0123,-0.0123,-0.0123,-0.0123,0,0.0268,0.0285,0.0316,0.0356,0.0404,0.0449,0.0471,0.05,0.0527,0.0543,0.0541,0.0462,0.0421,0.0267,0.0165,0.006,0.0025,-0.0021,-0.0025,-0.0024,0.0018,0.0043,0.0025,0,0,0,0,0,0.0276,0.0291,0.0329,0.037,0.0418,0.0446,0.0504,0.0523,0.055,0.0551,0.0548,0.0478,0.0334,0.0277,0.0169,0.014,-0.0001,0.0008,-0.0058,-0.0135,-0.0133,-0.0101,0,0,0,0,0,0,0.0279,0.0311,0.0324,0.0374,0.0403,0.0458,0.0496,0.0518,0.0519,0.0532,0.0462,0.0434,0.0298,0.0392,0.0161,0.013,0.007,-0.0055,-0.0057,-0.0136,-0.0134,-0.0132,-0.0099,0,0,0,0,0]}]]